Hourly Data Report for May 22, 2021

OTTAWA INTL A
ONTARIO
Current Station Operator: NAVCAN

45°19'00.000" N
75°40'00.000" W
114.90 m
6106001
71628
YOW

Download Data

Hourly Data (May 2021)
Hourly Data Report for May 22, 2021
TIME
LST
Temp Definition
°C
Dew Point Definition
°C
Rel Hum Definition
%
Precip. Amount Definition
mm

Wind Dir Definition
10's deg

Wind Spd Definition
km/h
Visibility Definition
km
Stn Press Definition
kPa
Hmdx Definition


Wind Chill Definition


Weather Definition


00:00 22.3 13.0 55   24 7 24.1 100.92 25   LegendNANA
01:00 21.6 13.1 58   26 9 24.1 100.88     Cloudy
02:00 20.0 13.6 66   23 9 24.1 100.84     LegendNANA
03:00 19.9 13.8 67   23 11 24.1 100.81     LegendNANA
04:00 18.1 13.6 75   22 7 24.1 100.78     Cloudy
05:00 19.0 13.9 72   20 9 24.1 100.79     LegendNANA
06:00 19.9 14.5 71   20 6 24.1 100.82     LegendNANA
07:00 20.9 15.3 70   25 9 24.1 100.81 25   Mostly Cloudy
08:00 23.8 14.9 57   26 13 24.1 100.77 28   LegendNANA
09:00 24.5 15.3 56   29 20 24.1 100.75 29   LegendNANA
10:00 24.5 15.9 58   28 14 24.1 100.71 29   Mostly Cloudy
11:00 25.2 16.4 58   26 14 24.1 100.66 30   LegendNANA
12:00 25.2 17.0 60   26 16 24.1 100.57 30   LegendNANA
13:00 26.4 17.0 56   29 23 24.1 100.52 32   Mostly Cloudy
14:00 26.8 16.7 53   28 31 24.1 100.44 32   LegendNANA
15:00 26.9 17.4 55   28 23 24.1 100.36 32   LegendNANA
16:00 27.8 17.2 52   28 25 24.1 100.28 33   Mostly Cloudy
17:00 26.9 17.1 54   28 33 24.1 100.28 32   LegendNANA
18:00 25.2 17.2 61   29 25 24.1 100.26 31   LegendNANA
19:00 24.1 17.3 66   28 25 24.1 100.27 30   Mostly Cloudy
20:00 23.0 17.2 70   28 24 24.1 100.23 28   LegendNANA
21:00 22.0 17.4 74   27 17 24.1 100.23 28   LegendNANA
22:00 20.5 17.1 81   23 12 24.1 100.15 26   Clear
23:00 19.3 16.6 84   24 11 24.1 100.12     LegendNANA

Notes on Data Quality.

Legend

  • E = Estimated
  • M = Missing
  • NA = Not Available*
  • [empty] = Indicates an unobserved value
Date modified: